time, Switch, Flow(0), Analog(2)
yyyy/mm/dd HH:MM:SS.fff, True=FILTERED|False=TOTAL, L/min, V
2023/07/06 00:00:00.384, True, 4.243, 0.153124
2023/07/06 00:00:00.872, True, 4.796, 0.151522
2023/07/06 00:00:01.376, True, 4.642, 0.151675
2023/07/06 00:00:01.880, True, 4.642, 0.151675
2023/07/06 00:00:02.376, True, 4.717, 0.152819
2023/07/06 00:00:02.880, True, 4.311, 0.153048
2023/07/06 00:00:03.384, True, 4.642, 0.155642
2023/07/06 00:00:03.880, True, 3.707, 0.152743
2023/07/06 00:00:04.384, True, 2.321, 0.153048
2023/07/06 00:00:04.888, True, 1.327, 0.153582
2023/07/06 00:00:05.384, True, 1.011, 0.152667
2023/07/06 00:00:05.888, True, 0.995, 0.151064
2023/07/06 00:00:06.392, True, 0.663, 0.152132
2023/07/06 00:00:06.888, True, 0.674, 0.152819
2023/07/06 00:00:07.392, True, 0.663, 0.153124
2023/07/06 00:00:07.895, True, 0.664, 0.153353
2023/07/06 00:00:08.392, True, 0.673, 0.151751
2023/07/06 00:00:08.896, True, 0.995, 0.153429
2023/07/06 00:00:09.400, True, 0.663, 0.151827
2023/07/06 00:00:09.896, True, 0.674, 0.153582
2023/07/06 00:00:10.400, True, 0.663, 0.153658
2023/07/06 00:00:10.904, True, 0.663, 0.154192
2023/07/06 00:00:11.408, True, 0.663, 0.153582
2023/07/06 00:00:11.903, True, 0.674, 0.153506
2023/07/06 00:00:12.408, True, 0.995, 0.153735
2023/07/06 00:00:12.911, True, 0.663, 0.154116
2023/07/06 00:00:13.407, True, 0.674, 0.151522
2023/07/06 00:00:13.912, True, 0.663, 0.152209
2023/07/06 00:00:14.415, True, 0.663, 0.152361
2023/07/06 00:00:14.911, True, 0.674, 0.153811
2023/07/06 00:00:15.416, True, 0.663, 0.154345
2023/07/06 00:00:15.920, True, 0.995, 0.153277
2023/07/06 00:00:16.415, True, 0.674, 0.151598
2023/07/06 00:00:16.920, True, 0.663, 0.153887
2023/07/06 00:00:17.424, True, 0.663, 0.152056
2023/07/06 00:00:17.920, True, 0.674, 0.152743
2023/07/06 00:00:18.424, True, 0.663, 0.154498
2023/07/06 00:00:18.928, True, 0.663, 0.152209
2023/07/06 00:00:19.423, True, 0.674, 0.151446
2023/07/06 00:00:19.928, True, 0.995, 0.150225
2023/07/06 00:00:20.431, True, 0.664, 0.152361
2023/07/06 00:00:20.928, True, 0.673, 0.151598
2023/07/06 00:00:21.432, True, 0.664, 0.153964
2023/07/06 00:00:21.936, True, 0.663, 0.153582
2023/07/06 00:00:22.432, True, 0.674, 0.152590
2023/07/06 00:00:22.935, True, 0.664, 0.151980
2023/07/06 00:00:23.440, True, 0.994, 0.154116
2023/07/06 00:00:23.936, True, 0.674, 0.153506
2023/07/06 00:00:24.440, True, 0.664, 0.151369
2023/07/06 00:00:24.944, True, 0.664, 0.153353
2023/07/06 00:00:25.448, True, 0.662, 0.151751
2023/07/06 00:00:25.944, True, 0.674, 0.153277
2023/07/06 00:00:26.448, True, 0.664, 0.154421
2023/07/06 00:00:26.952, True, 0.662, 0.153048
2023/07/06 00:00:27.448, True, 1.011, 0.156252
2023/07/06 00:00:27.952, True, 0.663, 0.153658
2023/07/06 00:00:28.456, True, 0.664, 0.155184
2023/07/06 00:00:28.952, True, 0.673, 0.153658
2023/07/06 00:00:29.455, True, 0.663, 0.152743
2023/07/06 00:00:29.960, True, 0.664, 0.153429
2023/07/06 00:00:30.456, True, 0.673, 0.152361
2023/07/06 00:00:30.959, True, 0.995, 0.152209
2023/07/06 00:00:31.464, True, 0.663, 0.154879
2023/07/06 00:00:31.960, True, 0.674, 0.154574
2023/07/06 00:00:32.463, True, 0.664, 0.150149
2023/07/06 00:00:32.968, True, 0.662, 0.153201
2023/07/06 00:00:33.464, True, 0.674, 0.152132
2023/07/06 00:00:33.968, True, 0.663, 0.152361
2023/07/06 00:00:34.472, True, 0.663, 0.155795
2023/07/06 00:00:34.968, True, 1.011, 0.153277
2023/07/06 00:00:35.472, True, 0.664, 0.152743
2023/07/06 00:00:35.976, True, 0.663, 0.152514
2023/07/06 00:00:36.472, True, 0.674, 0.152895
2023/07/06 00:00:36.976, True, 0.663, 0.152209
2023/07/06 00:00:37.480, True, 0.663, 0.155184
2023/07/06 00:00:37.984, True, 0.663, 0.153887
2023/07/06 00:00:38.480, True, 0.674, 0.152438
2023/07/06 00:00:38.984, True, 0.663, 0.152819
2023/07/06 00:00:39.488, True, 0.664, 0.154650
2023/07/06 00:00:39.984, True, 0.673, 0.153429
2023/07/06 00:00:40.488, True, 0.995, 0.152209
2023/07/06 00:00:40.992, True, 0.664, 0.154116
2023/07/06 00:00:41.488, True, 0.674, 0.152056
2023/07/06 00:00:41.992, True, 0.664, 0.151904
2023/07/06 00:00:42.496, True, 0.662, 0.154116
2023/07/06 00:00:42.992, True, 0.674, 0.153811
2023/07/06 00:00:43.495, True, 0.663, 0.154955
2023/07/06 00:00:43.000, True, 0.663, 0.154192
2023/07/06 00:00:44.496, True, 0.674, 0.152514
2023/07/06 00:00:44.999, True, 0.663, 0.155337
2023/07/06 00:00:45.504, True, 0.995, 0.151904
2023/07/06 00:00:45.000, True, 0.674, 0.152667
2023/07/06 00:00:46.504, True, 0.663, 0.152972
2023/07/06 00:00:47.008, True, 0.663, 0.151522
2023/07/06 00:00:47.504, True, 0.674, 0.153735
2023/07/06 00:00:48.008, True, 0.332, 0.150912
2023/07/06 00:00:48.512, True, 0.995, 0.152819
2023/07/06 00:00:49.008, True, 0.674, 0.153582
2023/07/06 00:00:49.512, True, 0.663, 0.151369
2023/07/06 00:00:50.016, True, 0.663, 0.152361
2023/07/06 00:00:50.520, True, 0.663, 0.152895
2023/07/06 00:00:51.016, True, 0.675, 0.151522
2023/07/06 00:00:51.520, True, 0.662, 0.151827
2023/07/06 00:00:52.024, True, 0.663, 0.153811
2023/07/06 00:00:52.520, True, 0.674, 0.154574
2023/07/06 00:00:53.024, True, 0.995, 0.151598
2023/07/06 00:00:53.528, True, 0.664, 0.151980
2023/07/06 00:00:54.024, True, 0.674, 0.154116
2023/07/06 00:00:54.528, True, 0.663, 0.153201
2023/07/06 00:00:55.032, True, 0.663, 0.152056
2023/07/06 00:00:55.528, True, 0.674, 0.150988
2023/07/06 00:00:56.032, True, 0.663, 0.151369
2023/07/06 00:00:56.536, True, 0.663, 0.154498
2023/07/06 00:00:57.032, True, 0.674, 0.152819
2023/07/06 00:00:57.536, True, 0.663, 0.152209
2023/07/06 00:00:58.040, True, 0.663, 0.154421
2023/07/06 00:00:58.536, True, 0.674, 0.152819
2023/07/06 00:00:59.040, True, 0.663, 0.152056
2023/07/06 00:00:59.544, True, 0.663, 0.153811
2023/07/06 00:01:00.048, True, 0.664, 0.152590
2023/07/06 00:01:00.544, True, 0.673, 0.150912
2023/07/06 00:01:01.048, True, 0.663, 0.151675
2023/07/06 00:01:01.552, True, 0.995, 0.151751
2023/07/06 00:01:02.048, True, 0.674, 0.152819
2023/07/06 00:01:02.552, True, 0.663, 0.152438
2023/07/06 00:01:03.048, True, 0.674, 0.152361
2023/07/06 00:01:03.552, True, 0.663, 0.152132
2023/07/06 00:01:04.056, True, 0.663, 0.152056
2023/07/06 00:01:04.552, True, 0.674, 0.151217
2023/07/06 00:01:05.056, True, 0.995, 0.152743
2023/07/06 00:01:05.560, True, 0.664, 0.151446
2023/07/06 00:01:06.056, True, 0.673, 0.152895
2023/07/06 00:01:06.560, True, 0.663, 0.153582
2023/07/06 00:01:07.063, True, 0.663, 0.153353
2023/07/06 00:01:07.560, True, 0.674, 0.151141
2023/07/06 00:01:08.064, True, 0.663, 0.152514
2023/07/06 00:01:08.568, True, 0.663, 0.153124
2023/07/06 00:01:09.064, True, 0.674, 0.153124
2023/07/06 00:01:09.568, True, 0.663, 0.151522
2023/07/06 00:01:10.072, True, 0.996, 0.150378
2023/07/06 00:01:10.567, True, 0.673, 0.155413
2023/07/06 00:01:11.072, True, 0.663, 0.153506
2023/07/06 00:01:11.576, True, 0.663, 0.152972
2023/07/06 00:01:12.072, True, 0.674, 0.153964
2023/07/06 00:01:12.576, True, 0.663, 0.153048
2023/07/06 00:01:13.080, True, 0.663, 0.156710
2023/07/06 00:01:13.576, True, 0.674, 0.151522
2023/07/06 00:01:14.080, True, 0.663, 0.155871
2023/07/06 00:01:14.584, True, 0.663, 0.153582
2023/07/06 00:01:15.080, True, 0.674, 0.152209
2023/07/06 00:01:15.584, True, 0.663, 0.153582
2023/07/06 00:01:16.088, True, 0.663, 0.154879
2023/07/06 00:01:16.584, True, 0.674, 0.154269
2023/07/06 00:01:17.088, True, 0.663, 0.154574
2023/07/06 00:01:17.592, True, 0.663, 0.154574
2023/07/06 00:01:18.088, True, 0.674, 0.154269
2023/07/06 00:01:18.592, True, 0.995, 0.154040
2023/07/06 00:01:19.088, True, 0.674, 0.153582
2023/07/06 00:01:19.592, True, 0.663, 0.153887
2023/07/06 00:01:20.096, True, 0.664, 0.155795
2023/07/06 00:01:20.599, True, 0.663, 0.155642
2023/07/06 00:01:21.096, True, 0.673, 0.154269
2023/07/06 00:01:21.600, True, 0.663, 0.155413
2023/07/06 00:01:22.096, True, 0.674, 0.156481
2023/07/06 00:01:22.600, True, 0.663, 0.156863
2023/07/06 00:01:23.104, True, 0.663, 0.157855
2023/07/06 00:01:23.600, True, 0.674, 0.156786
2023/07/06 00:01:24.104, True, 0.663, 0.155337
2023/07/06 00:01:24.608, True, 0.995, 0.155108
2023/07/06 00:01:25.104, True, 0.674, 0.157244
2023/07/06 00:01:25.608, True, 0.663, 0.157015
2023/07/06 00:01:26.104, True, 0.674, 0.157015
2023/07/06 00:01:26.608, True, 0.663, 0.156252
2023/07/06 00:01:27.111, True, 0.663, 0.155108
2023/07/06 00:01:27.608, True, 0.674, 0.153964
2023/07/06 00:01:28.112, True, 0.663, 0.156939
2023/07/06 00:01:28.616, True, 0.663, 0.156786
2023/07/06 00:01:29.112, True, 0.674, 0.157702
2023/07/06 00:01:29.615, True, 0.663, 0.157015
2023/07/06 00:01:30.120, True, 0.663, 0.157092
2023/07/06 00:01:30.624, True, 0.663, 0.158312
2023/07/06 00:01:31.120, True, 0.674, 0.156939
2023/07/06 00:01:31.624, True, 0.663, 0.156558
2023/07/06 00:01:32.128, True, 0.663, 0.157702
2023/07/06 00:01:32.624, True, 1.011, 0.157321
2023/07/06 00:01:33.128, True, 0.663, 0.157015
2023/07/06 00:01:33.632, True, 0.663, 0.158236
2023/07/06 00:01:34.128, True, 0.674, 0.158007
2023/07/06 00:01:34.632, True, 0.663, 0.156939
2023/07/06 00:01:35.128, True, 0.674, 0.160067
2023/07/06 00:01:35.632, True, 0.663, 0.159380
2023/07/06 00:01:36.136, True, 0.663, 0.158541
2023/07/06 00:01:36.640, True, 0.663, 0.159457
2023/07/06 00:01:37.136, True, 0.674, 0.160678
2023/07/06 00:01:37.640, True, 0.663, 0.164492
2023/07/06 00:01:38.144, True, 0.663, 0.160678
2023/07/06 00:01:38.640, True, 0.674, 0.159991
2023/07/06 00:01:39.144, True, 0.663, 0.158465
2023/07/06 00:01:39.648, True, 0.663, 0.158923
2023/07/06 00:01:40.144, True, 1.011, 0.159152
2023/07/06 00:01:40.648, True, 0.663, 0.158694
2023/07/06 00:01:41.152, True, 0.663, 0.158694
2023/07/06 00:01:41.648, True, 0.674, 0.159075
2023/07/06 00:01:42.152, True, 0.663, 0.159609
2023/07/06 00:01:42.656, True, 0.664, 0.157015
2023/07/06 00:01:43.152, True, 0.673, 0.160525
2023/07/06 00:01:43.656, True, 0.663, 0.158999
2023/07/06 00:01:44.160, True, 0.663, 0.159991
2023/07/06 00:01:44.655, True, 0.674, 0.158541
2023/07/06 00:01:45.160, True, 0.663, 0.159075
2023/07/06 00:01:45.664, True, 0.663, 0.162814
2023/07/06 00:01:46.159, True, 0.675, 0.158389
2023/07/06 00:01:46.663, True, 0.662, 0.157855
2023/07/06 00:01:47.167, True, 0.663, 0.158694
2023/07/06 00:01:47.671, True, 0.995, 0.159686
2023/07/06 00:01:48.167, True, 0.675, 0.158923
2023/07/06 00:01:48.672, True, 0.663, 0.159838
2023/07/06 00:01:49.176, True, 0.662, 0.159609
2023/07/06 00:01:49.671, True, 0.674, 0.159609
2023/07/06 00:01:50.176, True, 0.664, 0.160220
2023/07/06 00:01:50.680, True, 0.662, 0.159686
2023/07/06 00:01:51.175, True, 0.674, 0.160906
2023/07/06 00:01:51.680, True, 0.664, 0.160372
2023/07/06 00:01:52.184, True, 0.662, 0.160220
2023/07/06 00:01:52.680, True, 0.674, 0.159304
2023/07/06 00:01:53.184, True, 0.664, 0.159762
2023/07/06 00:01:53.688, True, 0.663, 0.158160
2023/07/06 00:01:54.184, True, 0.674, 0.158999
2023/07/06 00:01:54.688, True, 0.663, 0.160678
2023/07/06 00:01:55.192, True, 0.663, 0.159686
2023/07/06 00:01:55.687, True, 0.674, 0.158923
2023/07/06 00:01:56.192, True, 0.662, 0.159457
2023/07/06 00:01:56.695, True, 0.663, 0.162966
2023/07/06 00:01:57.191, True, 0.675, 0.160601
2023/07/06 00:01:57.696, True, 0.662, 0.161746
2023/07/06 00:01:58.200, True, 0.665, 0.160754
2023/07/06 00:01:58.704, True, 0.662, 0.164569
2023/07/06 00:01:59.200, True, 0.337, 0.161135
2023/07/06 00:01:59.704, True, 0.663, 0.161212
2023/07/06 00:02:00.208, True, 0.664, 0.160220
2023/07/06 00:02:00.704, True, 0.673, 0.160067
2023/07/06 00:02:01.208, True, 0.664, 0.160067
2023/07/06 00:02:01.712, True, 0.663, 0.159075
2023/07/06 00:02:02.208, True, 1.011, 0.160983
2023/07/06 00:02:02.712, True, 0.663, 0.159838
2023/07/06 00:02:03.216, True, 0.663, 0.160830
2023/07/06 00:02:03.712, True, 0.674, 0.163806
2023/07/06 00:02:04.216, True, 0.332, 0.160983
2023/07/06 00:02:04.719, True, 0.663, 0.159762
2023/07/06 00:02:05.215, True, 0.675, 0.159457
2023/07/06 00:02:05.720, True, 0.662, 0.160830
2023/07/06 00:02:06.215, True, 1.011, 0.161593
2023/07/06 00:02:06.720, True, 0.663, 0.160830
2023/07/06 00:02:07.224, True, 0.664, 0.162737
2023/07/06 00:02:07.720, True, 0.673, 0.160678
2023/07/06 00:02:08.224, True, 0.663, 0.163500
2023/07/06 00:02:08.728, True, 0.663, 0.160449
2023/07/06 00:02:09.224, True, 0.674, 0.161593
2023/07/06 00:02:09.728, True, 0.663, 0.160754
2023/07/06 00:02:10.232, True, 0.663, 0.162509
2023/07/06 00:02:10.728, True, 0.674, 0.163577
2023/07/06 00:02:11.232, True, 0.663, 0.159915
2023/07/06 00:02:11.736, True, 0.663, 0.160449
2023/07/06 00:02:12.232, True, 0.675, 0.161822
2023/07/06 00:02:12.736, True, 0.662, 0.160372
2023/07/06 00:02:13.240, True, 0.663, 0.163577
2023/07/06 00:02:13.736, True, 0.674, 0.161822
2023/07/06 00:02:14.240, True, 0.664, 0.160296
2023/07/06 00:02:14.736, True, 0.673, 0.162127
2023/07/06 00:02:15.240, True, 0.663, 0.158541
2023/07/06 00:02:15.744, True, 0.663, 0.160449
2023/07/06 00:02:16.240, True, 0.674, 0.160296
2023/07/06 00:02:16.744, True, 0.663, 0.159915
2023/07/06 00:02:17.248, True, 0.663, 0.159457
2023/07/06 00:02:17.752, True, 0.663, 0.161822
2023/07/06 00:02:18.248, True, 0.674, 0.158312
2023/07/06 00:02:18.752, True, 0.664, 0.160296
2023/07/06 00:02:19.256, True, 0.332, 0.159991
2023/07/06 00:02:19.752, True, 0.674, 0.159457
2023/07/06 00:02:20.256, True, 0.996, 0.159228
2023/07/06 00:02:20.760, True, 0.663, 0.160449
2023/07/06 00:02:21.264, True, 0.663, 0.161135
2023/07/06 00:02:21.760, True, 0.674, 0.159686
2023/07/06 00:02:22.264, True, 0.664, 0.159075
2023/07/06 00:02:22.768, True, 0.663, 0.161364
2023/07/06 00:02:23.264, True, 0.674, 0.161212
2023/07/06 00:02:23.768, True, 0.664, 0.163043
2023/07/06 00:02:24.264, True, 0.674, 0.159380
2023/07/06 00:02:24.768, True, 0.663, 0.163119
2023/07/06 00:02:25.272, True, 0.662, 0.161975
2023/07/06 00:02:25.776, True, 0.663, 0.162432
2023/07/06 00:02:26.272, True, 0.674, 0.160296
2023/07/06 00:02:26.776, True, 0.663, 0.160372
2023/07/06 00:02:27.280, True, 0.663, 0.161593
2023/07/06 00:02:27.776, True, 0.674, 0.162585
2023/07/06 00:02:28.280, True, 0.663, 0.159838
2023/07/06 00:02:28.784, True, 0.663, 0.160830
2023/07/06 00:02:29.280, True, 0.675, 0.160830
2023/07/06 00:02:29.784, True, 0.663, 0.160754
2023/07/06 00:02:30.288, True, 0.663, 0.161212
2023/07/06 00:02:30.792, True, 0.663, 0.160983
2023/07/06 00:02:31.288, True, 0.337, 0.162661
2023/07/06 00:02:31.792, True, 0.995, 0.159762
2023/07/06 00:02:32.288, True, 0.674, 0.162966
2023/07/06 00:02:32.792, True, 0.663, 0.161212
2023/07/06 00:02:33.296, True, 0.663, 0.161440
2023/07/06 00:02:33.792, True, 0.674, 0.162432
2023/07/06 00:02:34.296, True, 0.663, 0.160906
2023/07/06 00:02:34.800, True, 0.663, 0.163882
2023/07/06 00:02:35.296, True, 0.674, 0.161288
2023/07/06 00:02:35.800, True, 0.663, 0.159228
2023/07/06 00:02:36.304, True, 0.663, 0.160296
2023/07/06 00:02:36.800, True, 0.674, 0.162585
2023/07/06 00:02:37.304, True, 0.663, 0.160754
2023/07/06 00:02:37.808, True, 0.663, 0.161822
2023/07/06 00:02:38.303, True, 0.675, 0.160906
2023/07/06 00:02:38.808, True, 0.331, 0.162661
2023/07/06 00:02:39.312, True, 0.662, 0.161440
2023/07/06 00:02:39.808, True, 0.674, 0.159991
2023/07/06 00:02:40.312, True, 0.663, 0.161822
2023/07/06 00:02:40.816, True, 0.663, 0.162432
2023/07/06 00:02:41.312, True, 0.673, 0.160754
2023/07/06 00:02:41.816, True, 0.663, 0.159991
2023/07/06 00:02:42.320, True, 0.995, 0.160754
2023/07/06 00:02:42.823, True, 0.663, 0.161440
2023/07/06 00:02:43.320, True, 0.674, 0.160906
2023/07/06 00:02:43.824, True, 0.663, 0.163424
2023/07/06 00:02:44.328, True, 0.663, 0.160678
2023/07/06 00:02:44.824, True, 0.675, 0.163806
2023/07/06 00:02:45.328, True, 0.662, 0.159609
2023/07/06 00:02:45.832, True, 0.663, 0.160983
2023/07/06 00:02:46.328, True, 0.674, 0.160296
2023/07/06 00:02:46.832, True, 0.663, 0.160678
2023/07/06 00:02:47.336, True, 0.664, 0.159915
2023/07/06 00:02:47.832, True, 0.674, 0.159152
2023/07/06 00:02:48.336, True, 0.663, 0.159075
2023/07/06 00:02:48.840, True, 0.663, 0.160220
2023/07/06 00:02:49.336, True, 0.674, 0.160906
2023/07/06 00:02:49.840, True, 0.663, 0.161822
2023/07/06 00:02:50.343, True, 0.664, 0.161746
2023/07/06 00:02:50.840, True, 0.673, 0.166247
2023/07/06 00:02:51.344, True, 0.663, 0.160372
2023/07/06 00:02:51.848, True, 0.664, 0.159915
2023/07/06 00:02:52.344, True, 0.674, 0.162356
2023/07/06 00:02:52.848, True, 0.662, 0.163043
2023/07/06 00:02:53.352, True, 0.664, 0.161364
2023/07/06 00:02:53.848, True, 0.674, 0.160296
2023/07/06 00:02:54.352, True, 0.663, 0.163424
2023/07/06 00:02:54.855, True, 0.664, 0.161212
2023/07/06 00:02:55.352, True, 0.674, 0.162661
2023/07/06 00:02:55.855, True, 0.662, 0.159152
2023/07/06 00:02:56.360, True, 0.664, 0.162432
2023/07/06 00:02:56.855, True, 0.673, 0.160830
2023/07/06 00:02:57.359, True, 0.663, 0.161975
2023/07/06 00:02:57.864, True, 0.663, 0.161364
2023/07/06 00:02:58.360, True, 0.674, 0.161898
2023/07/06 00:02:58.864, True, 0.663, 0.163500
2023/07/06 00:02:59.368, True, 0.663, 0.159762
2023/07/06 00:02:59.864, True, 0.674, 0.162203
2023/07/06 00:03:00.367, True, 0.664, 0.162280
2023/07/06 00:03:00.872, True, 0.664, 0.159915
2023/07/06 00:03:01.367, True, 0.673, 0.161364
2023/07/06 00:03:01.871, True, 0.663, 0.162280
2023/07/06 00:03:02.376, True, 0.663, 0.159686
2023/07/06 00:03:02.871, True, 0.674, 0.161135
2023/07/06 00:03:03.376, True, 0.663, 0.162280
2023/07/06 00:03:03.880, True, 0.663, 0.161212
2023/07/06 00:03:04.376, True, 0.674, 0.158694
2023/07/06 00:03:04.880, True, 0.663, 0.160830
2023/07/06 00:03:05.384, True, 0.663, 0.159228
2023/07/06 00:03:05.880, True, 0.674, 0.160372
2023/07/06 00:03:06.384, True, 0.663, 0.160067
2023/07/06 00:03:06.888, True, 0.332, 0.162356
2023/07/06 00:03:07.384, True, 0.674, 0.159152
2023/07/06 00:03:07.888, True, 0.663, 0.162432
2023/07/06 00:03:08.392, True, 0.995, 0.161440
2023/07/06 00:03:08.888, True, 0.674, 0.162203
2023/07/06 00:03:09.392, True, 0.332, 0.160601
2023/07/06 00:03:09.896, True, 0.663, 0.161669
2023/07/06 00:03:10.400, True, 0.663, 0.161288
2023/07/06 00:03:10.896, True, 0.674, 0.161975
2023/07/06 00:03:11.400, True, 0.663, 0.162280
2023/07/06 00:03:11.895, True, 0.674, 0.160525
2023/07/06 00:03:12.400, True, 0.663, 0.161440
2023/07/06 00:03:12.904, True, 0.663, 0.160372
2023/07/06 00:03:13.400, True, 0.675, 0.161975
2023/07/06 00:03:13.904, True, 0.662, 0.159457
2023/07/06 00:03:14.408, True, 0.664, 0.159915
2023/07/06 00:03:14.904, True, 0.673, 0.159609
2023/07/06 00:03:15.408, True, 0.663, 0.160830
2023/07/06 00:03:15.912, True, 0.664, 0.160983
2023/07/06 00:03:16.415, True, 0.662, 0.160449
2023/07/06 00:03:16.911, True, 0.674, 0.160372
2023/07/06 00:03:17.416, True, 0.664, 0.162966
2023/07/06 00:03:17.920, True, 0.993, 0.161746
2023/07/06 00:03:18.416, True, 0.674, 0.160525
2023/07/06 00:03:18.920, True, 0.665, 0.161975
2023/07/06 00:03:19.424, True, 0.663, 0.163272
2023/07/06 00:03:19.920, True, 0.674, 0.161212
2023/07/06 00:03:20.423, True, 0.663, 0.161517
2023/07/06 00:03:20.928, True, 0.664, 0.162051
2023/07/06 00:03:21.432, True, 0.662, 0.160296
2023/07/06 00:03:21.928, True, 0.675, 0.163729
2023/07/06 00:03:22.432, True, 0.663, 0.158389
2023/07/06 00:03:22.936, True, 0.664, 0.158846
2023/07/06 00:03:23.432, True, 0.673, 0.161364
2023/07/06 00:03:23.936, True, 0.663, 0.160906
2023/07/06 00:03:24.432, True, 0.674, 0.161746
2023/07/06 00:03:24.935, True, 0.663, 0.159609
2023/07/06 00:03:25.440, True, 0.663, 0.159304
2023/07/06 00:03:25.935, True, 0.674, 0.161517
2023/07/06 00:03:26.439, True, 0.995, 0.160296
2023/07/06 00:03:26.944, True, 0.663, 0.161288
2023/07/06 00:03:27.440, True, 0.675, 0.160449
2023/07/06 00:03:27.944, True, 0.331, 0.161135
2023/07/06 00:03:28.448, True, 0.995, 0.159991
2023/07/06 00:03:28.943, True, 0.674, 0.160372
2023/07/06 00:03:29.448, True, 0.663, 0.160830
2023/07/06 00:03:29.952, True, 0.663, 0.159152
2023/07/06 00:03:30.456, True, 0.663, 0.157931
2023/07/06 00:03:30.952, True, 0.675, 0.162890
2023/07/06 00:03:31.456, True, 0.662, 0.161364
2023/07/06 00:03:31.960, True, 0.663, 0.158999
2023/07/06 00:03:32.456, True, 0.675, 0.160067
2023/07/06 00:03:32.959, True, 0.331, 0.159838
2023/07/06 00:03:33.464, True, 0.663, 0.160983
2023/07/06 00:03:33.960, True, 1.011, 0.160754
2023/07/06 00:03:34.464, True, 0.663, 0.160220
2023/07/06 00:03:34.968, True, 0.663, 0.160983
2023/07/06 00:03:35.464, True, 0.674, 0.160983
2023/07/06 00:03:35.968, True, 0.663, 0.159991
2023/07/06 00:03:36.472, True, 0.663, 0.161364
2023/07/06 00:03:36.968, True, 0.674, 0.159609
2023/07/06 00:03:37.472, True, 0.664, 0.161975
2023/07/06 00:03:37.976, True, 0.663, 0.160601
2023/07/06 00:03:38.472, True, 0.674, 0.159762
2023/07/06 00:03:38.976, True, 0.663, 0.161212
2023/07/06 00:03:39.480, True, 0.664, 0.159609
2023/07/06 00:03:39.984, True, 0.662, 0.160983
2023/07/06 00:03:40.480, True, 0.674, 0.161975
2023/07/06 00:03:40.984, True, 0.663, 0.161746
2023/07/06 00:03:41.488, True, 0.663, 0.160449
2023/07/06 00:03:41.983, True, 0.674, 0.161898
2023/07/06 00:03:42.488, True, 0.663, 0.160067
2023/07/06 00:03:42.992, True, 0.663, 0.161364
2023/07/06 00:03:43.488, True, 0.674, 0.159152
2023/07/06 00:03:43.992, True, 0.663, 0.160830
2023/07/06 00:03:44.496, True, 0.663, 0.159991
2023/07/06 00:03:44.992, True, 0.675, 0.159075
2023/07/06 00:03:45.495, True, 0.662, 0.159762
2023/07/06 00:03:46.000, True, 0.663, 0.162966
2023/07/06 00:03:46.496, True, 0.674, 0.160983
2023/07/06 00:03:47.000, True, 0.663, 0.159228
2023/07/06 00:03:47.503, True, 0.663, 0.158999
2023/07/06 00:03:47.000, True, 0.674, 0.159457
2023/07/06 00:03:48.504, True, 0.663, 0.159380
2023/07/06 00:03:49.008, True, 0.663, 0.159915
2023/07/06 00:03:49.512, True, 0.663, 0.162127
2023/07/06 00:03:50.008, True, 0.674, 0.157092
2023/07/06 00:03:50.512, True, 0.663, 0.161364
2023/07/06 00:03:51.016, True, 0.663, 0.160525
2023/07/06 00:03:51.512, True, 0.674, 0.160067
2023/07/06 00:03:52.016, True, 0.663, 0.161212
2023/07/06 00:03:52.520, True, 0.663, 0.157855
2023/07/06 00:03:53.016, True, 0.674, 0.161135
2023/07/06 00:03:53.520, True, 0.663, 0.161364
2023/07/06 00:03:54.024, True, 0.663, 0.158999
2023/07/06 00:03:54.520, True, 0.674, 0.158999
2023/07/06 00:03:55.024, True, 0.663, 0.160525
2023/07/06 00:03:55.528, True, 0.664, 0.160143
2023/07/06 00:03:56.024, True, 0.673, 0.161593
2023/07/06 00:03:56.528, True, 0.663, 0.158389
2023/07/06 00:03:57.032, True, 0.664, 0.159686
2023/07/06 00:03:57.528, True, 0.673, 0.160449
2023/07/06 00:03:58.032, True, 0.663, 0.161898
2023/07/06 00:03:58.536, True, 0.664, 0.158618
2023/07/06 00:03:59.032, True, 0.674, 0.159915
2023/07/06 00:03:59.536, True, 0.663, 0.159457
2023/07/06 00:04:00.040, True, 0.664, 0.160067
2023/07/06 00:04:00.544, True, 0.663, 0.159686
2023/07/06 00:04:01.040, True, 0.673, 0.159457
2023/07/06 00:04:01.543, True, 0.663, 0.161746
2023/07/06 00:04:02.040, True, 0.674, 0.161212
2023/07/06 00:04:02.544, True, 0.664, 0.159762
2023/07/06 00:04:03.048, True, 0.664, 0.162127
2023/07/06 00:04:03.544, True, 0.673, 0.160983
2023/07/06 00:04:04.048, True, 0.663, 0.158007
2023/07/06 00:04:04.552, True, 0.663, 0.160449
2023/07/06 00:04:05.056, True, 0.663, 0.158236
2023/07/06 00:04:05.552, True, 0.674, 0.159075
2023/07/06 00:04:06.056, True, 0.663, 0.159609
2023/07/06 00:04:06.560, True, 0.663, 0.162509
2023/07/06 00:04:07.056, True, 0.674, 0.158770
2023/07/06 00:04:07.560, True, 0.664, 0.161135
2023/07/06 00:04:08.064, True, 0.663, 0.160830
2023/07/06 00:04:08.568, True, 0.663, 0.159152
2023/07/06 00:04:09.064, True, 0.674, 0.160296
2023/07/06 00:04:09.568, True, 0.663, 0.161669